TimeMST,TemperatureF,Dew PointF,Humidity,Sea Level PressureIn,VisibilityMPH,Wind Direction,Wind SpeedMPH,Gust SpeedMPH,PrecipitationIn,Events,Conditions,WindDirDegrees,DateUTC
12:53 AM,16.0,6.1,65,30.09,10.0,Calm,Calm,-,N/A,,Clear,0,2013-02-12 07:53:00
1:53 AM,17.1,7.0,65,30.10,10.0,Calm,Calm,-,N/A,,Clear,0,2013-02-12 08:53:00
2:53 AM,17.1,7.0,65,30.11,10.0,SSW,4.6,-,N/A,,Clear,200,2013-02-12 09:53:00
3:53 AM,16.0,7.0,68,30.10,10.0,SSW,5.8,-,N/A,,Clear,200,2013-02-12 10:53:00
4:53 AM,15.1,7.0,70,30.13,10.0,Calm,Calm,-,N/A,,Clear,0,2013-02-12 11:53:00
5:53 AM,16.0,8.1,71,30.15,10.0,SSW,6.9,-,N/A,,Clear,200,2013-02-12 12:53:00
6:53 AM,12.0,5.0,73,30.17,10.0,SW,4.6,-,N/A,,Clear,220,2013-02-12 13:53:00
7:53 AM,15.1,7.0,70,30.17,10.0,Calm,Calm,-,N/A,,Clear,0,2013-02-12 14:53:00
8:53 AM,21.0,10.9,65,30.17,10.0,Calm,Calm,-,N/A,,Clear,0,2013-02-12 15:53:00
9:53 AM,24.1,14.0,65,30.18,10.0,Calm,Calm,-,N/A,,Clear,0,2013-02-12 16:53:00
10:53 AM,30.9,16.0,54,30.18,10.0,Calm,Calm,-,N/A,,Clear,0,2013-02-12 17:53:00
11:53 AM,35.1,18.0,50,30.14,10.0,Calm,Calm,-,N/A,,Mostly Cloudy,0,2013-02-12 18:53:00
12:53 PM,35.1,18.0,50,30.12,10.0,SW,3.5,-,N/A,,Overcast,230,2013-02-12 19:53:00
1:53 PM,36.0,21.0,55,30.10,10.0,WNW,5.8,-,N/A,,Overcast,290,2013-02-12 20:53:00
2:53 PM,37.0,19.9,50,30.09,10.0,Calm,Calm,-,N/A,,Overcast,0,2013-02-12 21:53:00
3:53 PM,36.0,23.0,59,30.08,10.0,West,4.6,-,N/A,,Overcast,260,2013-02-12 22:53:00
4:53 PM,36.0,23.0,59,30.06,10.0,Calm,Calm,-,N/A,,Mostly Cloudy,0,2013-02-12 23:53:00
5:53 PM,32.0,24.1,73,30.08,10.0,SW,3.5,-,N/A,,Overcast,220,2013-02-13 00:53:00
6:53 PM,30.9,24.1,76,30.10,10.0,Calm,Calm,-,N/A,,Overcast,0,2013-02-13 01:53:00
7:53 PM,32.0,23.0,69,30.08,10.0,SE,3.5,-,N/A,,Overcast,130,2013-02-13 02:53:00
8:53 PM,30.9,24.1,76,30.05,10.0,SSW,4.6,-,N/A,,Overcast,200,2013-02-13 03:53:00
9:53 PM,30.9,19.9,64,30.01,10.0,Calm,Calm,-,N/A,,Overcast,0,2013-02-13 04:53:00
10:53 PM,26.1,19.0,75,29.98,10.0,North,-9999.0,-,N/A,,Clear,0,2013-02-13 05:53:00
11:53 PM,26.1,16.0,66,29.95,10.0,SSW,4.6,-,N/A,,Clear,200,2013-02-13 06:53:00